Location: ???? ?????????
(31.1304°N, 31.7111°E)
Time: 16:03:40
(UTC+00:00)

Transit 4A - All Passes

Search period start: 26 February 2021 00:00
Search period end: 08 March 2021 00:00
Orbit: 866 x 978 km, 66.8° (Epoch: 25 February)

Date Brightness Start Highest point End Pass type
(mag) Time Alt. Az. Time Alt. Az. Time Alt. Az.
26 Feb - 08:36:46 10° SSW 08:43:06 70° ESE 08:49:25 10° NNE daylight
26 Feb - 10:25:52 10° W 10:29:59 18° NW 10:34:05 10° N daylight
26 Feb - 17:46:08 10° N 17:51:14 28° ENE 17:56:12 10° ESE visible
26 Feb - 19:32:13 10° NW 19:37:32 35° WSW 19:42:45 10° S visible
27 Feb - 07:04:05 10° SE 07:06:46 13° ESE 07:09:27 10° ENE daylight
27 Feb - 08:46:00 10° SSW 08:52:24 77° WNW 08:58:45 10° NNE daylight
27 Feb - 10:37:41 10° WNW 10:39:42 11° NW 10:41:42 10° NNW daylight
27 Feb - 17:55:01 10° N 18:00:42 43° ENE 18:06:13 10° SE visible
27 Feb - 19:42:15 10° WNW 19:46:38 22° WSW 19:50:57 10° SSW visible
28 Feb - 07:11:10 10° SSE 07:15:49 21° ESE 07:20:27 10° ENE daylight
28 Feb - 08:55:35 10° SW 09:01:45 51° WNW 09:07:54 10° NNE daylight
28 Feb - 18:04:07 10° NNW 18:10:04 68° ENE 18:15:52 10° SSE visible
28 Feb - 19:53:10 10° WNW 19:55:40 13° WSW 19:58:09 10° SW visible
01 Mar - 07:19:18 10° S 07:24:56 34° ESE 07:30:33 10° NE daylight
01 Mar - 09:05:30 10° WSW 09:11:12 33° WNW 09:16:52 10° N daylight
01 Mar - 16:29:16 10° NNE 16:32:22 14° NE 16:35:26 10° E visible
01 Mar - 18:13:24 10° NNW 18:19:22 77° WSW 18:25:10 10° SSE visible
02 Mar - 07:27:57 10° S 07:34:06 53° ESE 07:40:15 10° NE daylight
02 Mar - 09:15:51 10° WSW 09:20:44 23° NW 09:25:36 10° N daylight
02 Mar - 16:37:30 10° N 16:42:01 22° NE 16:46:25 10° ESE visible
02 Mar - 18:22:53 10° NW 18:28:35 48° WSW 18:34:07 10° S visible
03 Mar - 07:36:58 10° SSW 07:43:21 82° ESE 07:49:42 10° NNE daylight
03 Mar - 09:26:50 10° W 09:30:22 15° NW 09:33:54 10° NNW daylight
03 Mar - 16:46:13 10° N 16:51:33 33° ENE 16:56:44 10° ESE visible
03 Mar - 18:32:40 10° NW 18:37:43 30° WSW 18:42:39 10° SSW visible
04 Mar - 06:03:21 10° SE 06:06:56 16° ESE 06:10:30 10° ENE daylight
04 Mar - 07:46:20 10° SW 07:52:39 66° WNW 07:58:58 10° NNE daylight
04 Mar - 16:55:11 10° NNW 17:00:59 51° ENE 17:06:37 10° SE visible
04 Mar - 18:42:56 10° WNW 18:46:47 18° WSW 18:50:36 10° SW visible
05 Mar - 06:10:56 10° SSE 06:16:00 25° ESE 06:21:03 10° NE daylight
05 Mar - 07:56:01 10° SW 08:02:03 43° WNW 08:08:04 10° N daylight
05 Mar - 15:21:49 10° NE 15:23:03 11° NE 15:24:14 10° ENE daylight
05 Mar - 17:04:20 10° NNW 17:10:19 80° ENE 17:16:08 10° SSE visible
05 Mar - 18:55:07 10° W 18:55:48 10° WSW 18:56:29 10° WSW visible
06 Mar - 06:19:16 10° S 06:25:09 40° ESE 06:30:58 10° NE daylight
06 Mar - 08:06:05 10° WSW 08:11:31 29° WNW 08:16:56 10° N daylight
06 Mar - 15:29:04 10° NNE 15:32:45 17° NE 15:36:22 10° E daylight
06 Mar - 17:13:42 10° NNW 17:19:35 65° WSW 17:25:19 10° SSE visible
07 Mar - 06:28:04 10° S 06:34:21 62° ESE 06:40:35 10° NNE daylight
07 Mar - 08:16:38 10° W 08:21:06 20° NW 08:25:33 10° N daylight
07 Mar - 15:37:31 10° N 15:42:21 25° NE 15:47:04 10° ESE daylight
07 Mar - 17:23:17 10° NW 17:28:46 40° WSW 17:34:07 10° S visible
